Home   Weather   Tamworth   Past weeks

Flag for Australia Past Weather in Tamworth, New South Wales, Australia — Yesterday and Last 2 Weeks

Now
73 °F

Mostly cloudy.


Feels Like: 72 °F
Forecast: 71 / 88 °F
Wind: 7 mph from North

Location: Tamworth Airport

Current Time: Jan 25, 2017 at 2:40:52 am

Latest Report: Jan 25, 2017 at 2:00 am


Visibility: N/A

Pressure: 30.04 "Hg

Humidity: 89%

Dew Point: 70 °F

Location of TamworthLocation

Past Weather in Tamworth — Graph

°F

Tamworth Temperature Yesterday

Maximum temperature yesterday: 100 °F (at 5:30 pm)
Minimum temperature yesterday: 70 °F (at 2:00 am)
Average temperature yesterday: 85 °F

High & Low Weather Summary for the Past Weeks

 TemperatureHumidityPressure
High102 °F (Jan 12, 2:30 pm)89% (Jan 18, 11:00 pm)30.07 "Hg (Jan 18, 11:00 pm)
Low63 °F (Jan 22, 5:30 am)20% (Jan 23, 4:30 pm)29.56 "Hg (Jan 20, 2:06 pm)
Average82 °F51%29.85 "Hg
* Reported Jan 10 2:00 am — Jan 25 2:00 am, Tamworth, Weather by CustomWeather, © 2017

Note: Actual official high and low records may vary slightly from our data, if they occured in-between our weather recording intervals... More about our weather records

Advertising

Tamworth Weather History for the Previous 24 Hours

Scroll right to see more
 ConditionsComfort  
Time TempWeatherWind HumidityBarometerVisibility
2:00 am
Wed, Jan 25
73 °FMostly cloudy.7 mph89%30.04 "HgN/A
1:30 am73 °FPartly cloudy.10 mph89%30.04 "HgN/A
1:13 am73 °FOvercast.13 mph89%30.04 "Hg4 mi
1:00 am75 °FPartly cloudy.20 mph83%30.04 "HgN/A
12:30 am73 °FPartly cloudy.15 mph89%29.98 "Hg1 mi
12:02 am77 °FOvercast.15 mph74%30.01 "Hg3 mi
11:30 pm
Tue, Jan 24
82 °FOvercast.21 mph55%29.98 "HgN/A
11:00 pm86 °FPassing clouds.14 mph49%29.98 "HgN/A
10:30 pm88 °FMostly cloudy.12 mph49%29.95 "HgN/A
10:00 pm88 °FMostly cloudy.9 mph46%29.95 "HgN/A
9:30 pm88 °FPassing clouds.1 mph46%29.92 "HgN/A
9:00 pm88 °FPassing clouds.No wind43%29.89 "HgN/A
8:30 pm90 °FPassing clouds.2 mph41%29.89 "HgN/A
8:00 pm93 °FSunny.No wind34%29.89 "HgN/A
7:30 pm97 °FSunny.No wind30%29.86 "HgN/A
7:00 pm99 °FSunny.7 mph29%29.86 "HgN/A
6:30 pm99 °FSunny.7 mph29%29.86 "HgN/A
6:00 pm99 °FScattered clouds.10 mph29%29.86 "HgN/A
5:30 pm100 °FPartly sunny.13 mph29%29.86 "HgN/A
5:00 pm99 °FScattered clouds.12 mph29%29.86 "HgN/A
4:30 pm99 °FPartly sunny.10 mph31%29.86 "HgN/A
4:00 pm99 °FPartly sunny.9 mph29%29.89 "HgN/A
3:30 pm97 °FPartly sunny.12 mph28%29.89 "HgN/A
3:00 pm99 °FScattered clouds.12 mph29%29.89 "HgN/A
2:30 pm95 °FScattered clouds.6 mph28%29.89 "HgN/A
2:00 pm95 °FScattered clouds.13 mph28%29.92 "HgN/A
1:30 pm95 °FSunny.13 mph30%29.92 "HgN/A
1:00 pm91 °FSunny.10 mph30%29.92 "HgN/A
12:30 pm91 °FSunny.13 mph32%29.95 "HgN/A
12:00 pm90 °FSunny.14 mph31%29.95 "HgN/A
11:30 am90 °FSunny.13 mph33%29.98 "HgN/A
11:00 am88 °FSunny.14 mph33%29.98 "HgN/A
10:00 am84 °FScattered clouds.15 mph37%30.01 "HgN/A
9:30 am82 °FScattered clouds.15 mph40%30.01 "HgN/A
9:00 am81 °FSunny.18 mph42%30.01 "HgN/A
8:30 am81 °FSunny.15 mph42%30.01 "HgN/A
8:00 am79 °FSunny.15 mph45%30.01 "HgN/A
7:30 am75 °FSunny.1 mph54%29.98 "HgN/A
7:00 am72 °FSunny.5 mph65%29.98 "HgN/A
6:30 am72 °FSunny.6 mph57%29.98 "HgN/A
6:00 am73 °FClear.6 mph53%29.95 "HgN/A
5:30 am73 °FClear.8 mph53%29.95 "HgN/A
5:00 am75 °FClear.9 mph50%29.95 "HgN/A
4:30 am75 °FClear.7 mph50%29.92 "HgN/A
4:00 am77 °FClear.10 mph47%29.92 "HgN/A
3:30 am77 °FClear.10 mph47%29.92 "HgN/A
3:00 am75 °FClear.9 mph57%29.95 "HgN/A
2:30 am70 °FClear.No wind69%29.92 "HgN/A
2:00 am70 °FClear.No wind69%29.92 "HgN/A
Weather by CustomWeather, © 2017

See weather overviewHow to use our weather pages